Starlink 6208

operational
NORAD ID: 56895 Int'l Des: 2023-083 Owner: SPXS Country: US Constellation: starlink
LEOCIRCULAR

Über Starlink 6208

Beschreibung wird geladen...

Live-Position

3D-Globus wird geladen...

Nächste Überflüge

Höhenverlauf

Altitude vs Time

uPlot chart will show altitude changes over time

Zweizeiliger Elementsatz

1 56895U 23083V 26034.98751383 -.00000700 00000-0 -36724-4 0 9993
2 56895 43.0029 264.6579 0001258 269.1261 90.9438 15.02531687146603
Epoch: 3. Feb. 2026 • Age: 25 hours

Aktueller Status

Höhe 558.7 km
Geschwindigkeit 7.58 km/s
Subsatellitenpunkt 3.21°N, 65.67°W
Startdatum 12. Juni 2023
Alter 2.6 years
Typ internet

Technische Details

Klassifizierung Payload
Masse 305.00 kg
Trockenmasse 290.00 kg
Gesamtmasse 305.00 kg
Länge 0.20 m
Durchmesser 2.80 m
Spannweite 9.00 m
Form Box + pan
Hersteller SPXS
Bus-Typ Starlink
Phasenstatus In Orbit
Besitzer/Staat SPXS/US

Große Konstellationen

Loading constellations...